SCP
-0 -0 -1 -1 -1 -1 -0 -0 -0 -0 -0 -0 -0 -0 -0 -0 -0 -0 0 0 0 0 -0 -0 0 0 0 0 0 0 0 0
-0 -0 -0 -0 -0 -0 -0 -0 -0 -0 -0 -0 -0 -0 0 0 0 0 0 0 0 0 0 0 0 0 0 0 0 0 -0 -0
-0 0 -0 -0 -0 -0 -0 -0 -0 -0 0 0 0 0 0 0 0 0 0 0 0 -0 -0 0 0 0 -0 -0 -0 -0 -0 -0
0 0 0 0 0 0 -0 0 0 0 0 0 0 0 0 0 0 0 0 0 0 0 0 0 -0 -0 -0 -0 -0 -0 -0 -0
0 0 0 0 -0 0 0 0 0 0 0 0 0 0 0 0 0 0 0 0 0 0 0 0 0 0 -0 -0 -0 -0 -0 -0
-0 -0 0 0 0 0 0 0 0 0 0 0 0 0 0 0 0 0 0 0 0 0 0 0 0 0 0 0 -0 0 0 0
-0 -0 -0 -0 0 0 0 0 0 0 0 0 0 0 0 0 0 0 0 0 0 0 0 0 0 0 0 0 0 0 0 0
-0 -0 -0 0 0 0 0 0 1 1 1 1 0 1 0 0 0 0 0 0 0 0 0 0 0 0 0 0 0 0 0 0
0 0 0 0 0 0 0 1 1 1 1 1 1 1 1 1 0 0 0 0 0 0 0 0 0 0 0 0 0 0 0 0
0 0 0 0 1 1 1 1 1 1 1 1 1 1 1 1 0 0 0 0 1 1 0 0 0 0 0 0 0 0 0 0
0 0 0 1 1 1 1 1 1 2 1 1 1 1 1 1 1 0 0 0 0 0 1 1 1 0 0 0 0 0 0 0
0 0 1 1 1 1 1 2 2 2 1 1 1 1 1 0 0 0 1 0 0 1 1 1 1 1 1 0 0 0 0 0
0 1 1 1 1 1 1 2 2 1 1 1 1 1 1 1 1 0 1 1 1 1 1 1 1 1 1 1 0 0 0 0
0 0 0 1 1 2 2 2 1 1 1 1 1 1 1 1 1 0 1 1 1 1 1 1 1 1 1 1 1 0 1 1
0 0 0 0 1 1 1 1 1 1 1 1 1 1 1 1 1 1 1 1 1 1 1 1 1 1 1 1 1 1 1 1
0 0 0 0 1 1 1 1 1 1 2 2 2 1 1 1 1 1 1 1 1 1 1 1 1 1 1 1 1 1 1 1
0 0 0 1 1 1 1 1 1 1 1 2 2 1 1 0 1 1 1 1 1 1 2 2 2 2 2 2 2 2 2 1
0 0 0 1 2 2 1 1 1 1 1 0 0 0 0 0 0 0 0 0 1 1 1 2 2 1 1 1 1 2 2 1
0 0 0 1 2 1 1 1 1 1 0 0 0 0 0 0 0 0 0 0 1 1 1 1 1 2 2 2 2 1 1 3
Wind_Speed_500mb
53 53 49 46 43 40 36 32 29 28 26 26 26 28 31 33 33 29 25 21 17 16 15 15 13 12 11 12 11 9 8 10
55 55 51 46 42 37 34 29 26 27 27 26 26 28 30 30 28 25 21 17 13 12 12 12 11 9 8 8 8 8 7 5
49 53 51 48 43 38 33 28 25 23 25 25 26 28 29 28 26 22 18 15 12 12 12 12 11 9 8 8 8 9 10 9
50 50 50 48 45 39 34 30 26 24 24 25 26 27 27 26 24 21 19 16 14 13 13 14 14 13 13 12 13 15 17 18
48 48 48 48 47 45 41 35 29 26 25 26 27 27 27 26 25 23 21 20 19 18 17 18 19 20 19 18 19 20 21 22
52 51 51 51 49 47 43 39 35 32 29 28 27 28 28 28 27 25 23 22 21 21 22 21 20 20 22 23 23 24 25 26
50 52 53 52 51 50 47 44 42 40 38 37 35 33 31 29 27 24 25 24 23 21 23 21 22 20 23 24 25 25 26 28
45 49 51 52 52 51 50 48 46 46 44 43 41 38 36 33 31 29 27 25 25 24 25 25 26 27 26 26 31 32 27 29
40 43 46 50 51 51 52 49 48 48 46 47 44 43 41 39 38 35 33 31 29 29 28 28 30 32 35 34 33 35 37 34
38 40 43 45 48 50 51 51 52 51 50 47 44 42 41 41 40 38 36 36 35 36 36 37 36 37 37 38 41 41 40 45
41 44 44 48 50 50 51 52 52 53 53 47 43 36 34 35 35 34 34 35 37 37 38 39 44 42 47 46 46 46 46 48
29 31 42 47 52 54 54 56 54 56 50 44 37 31 28 26 25 27 27 27 28 32 33 37 39 45 48 50 51 51 49 46
36 30 35 44 49 53 56 60 60 56 46 41 36 30 26 26 24 30 29 28 28 31 31 34 33 37 41 45 48 51 52 51
35 33 27 32 39 44 56 63 63 56 48 43 38 32 26 28 33 37 30 29 29 33 34 34 37 40 43 43 44 45 44 45
44 40 32 30 33 43 48 45 49 51 47 43 38 33 32 31 27 28 32 30 31 34 37 40 43 41 42 45 48 48 45 42
43 46 41 38 40 39 41 39 42 47 48 45 41 35 33 29 29 29 32 36 40 41 43 47 50 51 50 51 49 52 53 51
46 52 47 43 42 42 40 40 43 51 50 44 40 36 29 29 30 28 30 35 39 41 43 45 49 51 55 53 50 32 31 35
40 51 52 47 46 51 50 47 48 44 45 44 42 28 21 20 18 22 27 31 36 40 44 45 46 50 51 51 47 33 18 26
29 41 51 55 57 59 56 55 51 50 47 41 27 21 15 15 20 22 23 26 28 31 34 37 40 46 50 51 48 51 49 41
Wind_Direction_500mb
176 178 181 182 180 181 184 186 192 196 192 186 180 175 170 168 168 169 169 167 169 168 167 166 164 156 148 145 153 148 132 121
177 180 181 184 184 185 185 189 193 190 186 181 177 175 173 172 173 175 175 176 175 173 173 173 173 167 163 159 169 183 179 171
181 180 182 184 186 188 188 191 191 188 184 181 178 176 177 178 179 182 185 189 190 186 184 186 189 194 196 196 201 213 225 235
185 185 186 187 188 190 194 195 194 191 189 187 186 184 185 187 190 194 197 202 202 199 198 198 201 207 213 218 224 228 233 240
188 192 193 192 193 193 197 199 200 199 197 195 195 196 197 200 204 208 210 211 211 208 210 211 212 212 217 225 233 239 244 248
191 196 198 198 198 199 202 202 203 206 207 205 204 205 206 210 212 215 219 223 227 227 221 225 227 236 237 228 231 246 253 260
194 198 201 203 203 204 206 208 209 211 212 213 213 214 215 218 221 226 231 235 240 246 255 252 255 251 255 257 252 246 257 265
196 201 205 207 208 209 212 215 217 218 221 222 222 222 224 227 231 234 240 243 248 252 254 259 263 269 264 264 272 266 254 262
206 206 211 212 214 215 218 221 226 228 228 230 231 231 233 235 238 241 245 249 254 258 263 267 267 264 268 269 266 272 272 261
224 224 222 221 222 220 223 226 229 232 233 236 239 242 243 244 247 249 254 257 262 267 272 275 273 275 275 275 276 270 268 272
238 237 234 232 232 231 230 231 233 236 235 237 242 246 249 253 252 253 258 262 263 265 268 269 272 272 271 272 270 272 271 273
221 222 225 231 236 236 236 238 238 239 238 242 246 249 250 251 252 250 255 262 270 267 264 267 271 272 271 273 272 273 271 271
226 230 232 230 228 230 237 240 241 243 242 240 240 241 243 250 257 258 256 269 273 269 266 269 273 272 275 278 277 272 267 268
237 239 240 242 248 246 235 234 240 239 237 233 232 233 236 250 242 249 255 263 264 267 269 273 279 281 281 281 281 280 272 266
234 228 219 222 233 246 253 246 236 234 229 228 226 225 231 240 243 255 258 264 271 272 272 270 272 274 276 277 277 279 278 271
228 219 218 215 220 229 240 237 227 224 216 220 221 225 236 246 258 271 273 276 278 274 274 273 273 273 273 273 275 277 276 272
225 219 222 222 226 226 224 234 221 210 212 219 222 239 246 258 265 269 276 281 284 284 281 279 277 275 275 272 272 270 277 270
220 219 226 230 226 220 222 224 219 212 216 217 226 231 234 247 263 273 279 284 286 288 288 284 277 273 273 274 271 248 254 261
246 239 235 234 228 223 222 221 214 216 216 217 211 211 224 255 272 285 298 300 295 290 285 281 275 270 267 265 268 263 253 251
Wind_Speed_850mb
53 53 49 46 43 40 36 32 29 28 26 26 26 28 31 33 33 29 25 21 17 16 15 15 13 12 11 12 11 9 8 10
55 55 51 46 42 37 34 29 26 27 27 26 26 28 30 30 28 25 21 17 13 12 12 12 11 9 8 8 8 8 7 5
49 53 51 48 43 38 33 28 25 23 25 25 26 28 29 28 26 22 18 15 12 12 12 12 11 9 8 8 8 9 10 9
50 50 50 48 45 39 34 30 26 24 24 25 26 27 27 26 24 21 19 16 14 13 13 14 14 13 13 12 13 15 17 18
48 48 48 48 47 45 41 35 29 26 25 26 27 27 27 26 25 23 21 20 19 18 17 18 19 20 19 18 19 20 21 22
52 51 51 51 49 47 43 39 35 32 29 28 27 28 28 28 27 25 23 22 21 21 22 21 20 20 22 23 23 24 25 26
50 52 53 52 51 50 47 44 42 40 38 37 35 33 31 29 27 24 25 24 23 21 23 21 22 20 23 24 25 25 26 28
45 49 51 52 52 51 50 48 46 46 44 43 41 38 36 33 31 29 27 25 25 24 25 25 26 27 26 26 31 32 27 29
40 43 46 50 51 51 52 49 48 48 46 47 44 43 41 39 38 35 33 31 29 29 28 28 30 32 35 34 33 35 37 34
38 40 43 45 48 50 51 51 52 51 50 47 44 42 41 41 40 38 36 36 35 36 36 37 36 37 37 38 41 41 40 45
41 44 44 48 50 50 51 52 52 53 53 47 43 36 34 35 35 34 34 35 37 37 38 39 44 42 47 46 46 46 46 48
29 31 42 47 52 54 54 56 54 56 50 44 37 31 28 26 25 27 27 27 28 32 33 37 39 45 48 50 51 51 49 46
36 30 35 44 49 53 56 60 60 56 46 41 36 30 26 26 24 30 29 28 28 31 31 34 33 37 41 45 48 51 52 51
35 33 27 32 39 44 56 63 63 56 48 43 38 32 26 28 33 37 30 29 29 33 34 34 37 40 43 43 44 45 44 45
44 40 32 30 33 43 48 45 49 51 47 43 38 33 32 31 27 28 32 30 31 34 37 40 43 41 42 45 48 48 45 42
43 46 41 38 40 39 41 39 42 47 48 45 41 35 33 29 29 29 32 36 40 41 43 47 50 51 50 51 49 52 53 51
46 52 47 43 42 42 40 40 43 51 50 44 40 36 29 29 30 28 30 35 39 41 43 45 49 51 55 53 50 32 31 35
40 51 52 47 46 51 50 47 48 44 45 44 42 28 21 20 18 22 27 31 36 40 44 45 46 50 51 51 47 33 18 26
29 41 51 55 57 59 56 55 51 50 47 41 27 21 15 15 20 22 23 26 28 31 34 37 40 46 50 51 48 51 49 41
Wind_Direction_850mb
176 178 181 182 180 181 184 186 192 196 192 186 180 175 170 168 168 169 169 167 169 168 167 166 164 156 148 145 153 148 132 121
177 180 181 184 184 185 185 189 193 190 186 181 177 175 173 172 173 175 175 176 175 173 173 173 173 167 163 159 169 183 179 171
181 180 182 184 186 188 188 191 191 188 184 181 178 176 177 178 179 182 185 189 190 186 184 186 189 194 196 196 201 213 225 235
185 185 186 187 188 190 194 195 194 191 189 187 186 184 185 187 190 194 197 202 202 199 198 198 201 207 213 218 224 228 233 240
188 192 193 192 193 193 197 199 200 199 197 195 195 196 197 200 204 208 210 211 211 208 210 211 212 212 217 225 233 239 244 248
191 196 198 198 198 199 202 202 203 206 207 205 204 205 206 210 212 215 219 223 227 227 221 225 227 236 237 228 231 246 253 260
194 198 201 203 203 204 206 208 209 211 212 213 213 214 215 218 221 226 231 235 240 246 255 252 255 251 255 257 252 246 257 265
196 201 205 207 208 209 212 215 217 218 221 222 222 222 224 227 231 234 240 243 248 252 254 259 263 269 264 264 272 266 254 262
206 206 211 212 214 215 218 221 226 228 228 230 231 231 233 235 238 241 245 249 254 258 263 267 267 264 268 269 266 272 272 261
224 224 222 221 222 220 223 226 229 232 233 236 239 242 243 244 247 249 254 257 262 267 272 275 273 275 275 275 276 270 268 272
238 237 234 232 232 231 230 231 233 236 235 237 242 246 249 253 252 253 258 262 263 265 268 269 272 272 271 272 270 272 271 273
221 222 225 231 236 236 236 238 238 239 238 242 246 249 250 251 252 250 255 262 270 267 264 267 271 272 271 273 272 273 271 271
226 230 232 230 228 230 237 240 241 243 242 240 240 241 243 250 257 258 256 269 273 269 266 269 273 272 275 278 277 272 267 268
237 239 240 242 248 246 235 234 240 239 237 233 232 233 236 250 242 249 255 263 264 267 269 273 279 281 281 281 281 280 272 266
234 228 219 222 233 246 253 246 236 234 229 228 226 225 231 240 243 255 258 264 271 272 272 270 272 274 276 277 277 279 278 271
228 219 218 215 220 229 240 237 227 224 216 220 221 225 236 246 258 271 273 276 278 274 274 273 273 273 273 273 275 277 276 272
225 219 222 222 226 226 224 234 221 210 212 219 222 239 246 258 265 269 276 281 284 284 281 279 277 275 275 272 272 270 277 270
220 219 226 230 226 220 222 224 219 212 216 217 226 231 234 247 263 273 279 284 286 288 288 284 277 273 273 274 271 248 254 261
246 239 235 234 228 223 222 221 214 216 216 217 211 211 224 255 272 285 298 300 295 290 285 281 275 270 267 265 268 263 253 251